Погода Аскино

Погода Аскино : погода сейчас, прогноз погоды и архив. Всё, что Вы хотите узнать о погоде Аскино!

Поиск расширенной информации на нашем сайте:

Другие новости

Новости СМИ2

Главная страница сайта

Новости сайта

03.07.2017

Напоминаем, что на нашем специализированном сайте Метеоцентр.Азия вы можете получить высокодетализированные автоматические прогнозы погоды по пунктам России, СНГ и мира в авиационном формате (включающие направление и скорость ветра, видимость, явления погоды, количество и форму облачности, нижнюю и верхнюю границу облачности).


Погода Аскино - сегодня

Время (UTC), дата Ветер
(°,м/с) 
Видим.   Явления Облачность Т
(°С)
Тd
(°С)
f(%) Тe
(°С)
Pmin
(гПа)
dP
(гПа)
Po
(мм)
O2
(г/м3)
Тmin Tmax R s Состояние
почвы
03 17.09.17 230 (ЮЗ) 20000 м    3/0 средняя, верхняя 
[Ac lent|Ci]
+9 +7.6 91 +8  1017.8  0.6  745  289  +8.4        влажная 
06 17.09.17 240 (ЮЗ) 20000 м    6/6 1000 м 
[Cu med, cong]
+14.8 +9.4 70 +15  1018.2  0.9  745  283           
09 17.09.17 260 (З) 6-10{12}  20000 м    8/8 1000 м 
[Cu med, cong]
+16.6 +8.3 58 +16  1017.8  -0.3  745  282           
12 17.09.17 290 (З) 6{12}  20000 м    8/8 1000 м 
[Cu med, cong]
+17.1 +7 51 +17  1017.4  -0.4  745  281           
18 17.09.17 240 (ЮЗ) н/о    10/0 средняя 
[Ac und]
+11.5 +7.3 75 +11  1017.3  -0.6  744  287           
21 17.09.17 240 (ЮЗ) н/о    10/0 средняя 
[Ac und]
+10.5 +7.3 81 +9  1016.8  -0.6  744  287           
00 18.09.17 240 (ЮЗ) н/о    ясно 
+9.1 +6.9 86 +9  1017.6  0.7  744  289           
03 18.09.17 250 (З) 20000 м    1/0 средняя 
[Ac lent]
+8.5 +6.8 89 +8  1018.9  1.1  745  290  +7.7        сухая 
06 18.09.17 310 (СЗ) 20000 м    8/8 1000 м 
[Sc]
+11.2 +5.3 67 +10  1020.3  1.6  747  288           
09 18.09.17 290 (З) 6{10}  20000 м    9/9 1000 м 
[Sc]
+12.7 +4.7 58 +12  1020.5  0.2  747  287           
12 18.09.17 280 (З) 3{10}  20000 м    10/3 1000 м средняя 
[Cu hum|Ac und]
+12.8 +5.7 62 +13  1020.9  0.5  747  287           
18 18.09.17 220 (ЮЗ) н/о  {ливн. осадки}  10/6 600 м средняя 
[Cu med, cong|Ac und]
+10.2 +8.5 89 +10  1021.3  747  289           
21 18.09.17 170 (Ю) н/о  {ливн. осадки}  10/4 600 м средняя 
[Cu med, cong|Ac und]
+9.9 +8.7 92 +10  1020.6  -0.7  747  289           
00 19.09.17 130 (ЮВ) н/о  {ливн. осадки}  6/0 средняя 
[Ac trans]
+10.2 +8.1 87 +10  1019.6  -1  746  288           
03 19.09.17 160 (Ю) 20000 м    6/0 средняя, верхняя 
[Ac trans|Ci sp]
+11.1 +7.6 79 +10  1017.3  -2.1  744  287  +9.9    0.5    влажная 
06 19.09.17 190 (Ю) 20000 м    9/0 верхняя 
[Ci sp]
+16.8 +9.1 60 +17  1016  -0.8  744  281           
09 19.09.17 190 (Ю) 20000 м    9/0 верхняя 
[Ci sp]
+22.2 +10.4 47 +24  1014.3  -1.2  743  275           
12 19.09.17 200 (Ю) 6{10}  20000 м    9/0 верхняя 
[Ci fib]
+25.1 +10.9 41 +28  1012.6  -1.5  742  272           
15 19.09.17 190 (Ю) н/о    9/0 средняя, верхняя 
[Ac As|Cs]
+20.7 +11.4 55 +24  1012.6  -0.3  742  276    +25.1       
18 19.09.17 200 (Ю) 3{10}  н/о  гроза без осадков  9/5 600 м кучево-дожд., средняя, верхняя 
[Cb calv|Ac trans|Ci sp]
+20.4 +7.4 43 +20  1012.3  -0.3  741  277           
21 19.09.17 230 (ЮЗ) н/о  {гроза, ливн. осадки}  9/3 1000 м средняя, верхняя 
[Cu med, cong|Ac trans|Ci sp]
+17.6 +7.5 52 +18  1012.9  0.3  742  279           
00 20.09.17 230 (ЮЗ) н/о  {гроза, ливн. осадки}  4/0 средняя 
[Ac lent]
+15.2 +8.5 64 +15  1013.8  0.8  742  282           
03 20.09.17 250 (З) 20000 м    6/0 средняя 
[Ac cast]
+12.4 +9 80 +12  1015.6  1.4  743  285  +12.3    0.3    влажная 
06 20.09.17 260 (З) 20000 м    1/1 600 м 
[Cu hum]
+16.2 +7.8 57 +16  1017  1.7  744  282           
09 20.09.17 290 (З) 5{11}  20000 м    9/4 600 м верхняя 
[Cu hum|Cs]
+17.5 +7.7 53 +18  1017.2  0.3  745  281           
Время (UTC), дата Ветер
(°,м/с) 
Видим.   Явления Облачность Т
(°С)
Тd
(°С)
f(%) Тe
(°С)
Pmin
(гПа)
dP
(гПа)
Po
(мм)
O2
(г/м3)
Тmin Tmax R s Состояние
почвы

Для получения пояснительной информации подведите курсор к названию столбца.

ПОГОДА Аскино - архив

Всё, что Вы хотите узнать о погоде Аскино - удобно и подробно!

Выберите нужную дату (начиная с 1 января 2015* года) и нажмите кнопку "Найти".
Будут отображены архивные сводки погоды по пункту Аскино, начиная с указанной даты.


Отображать данные в формате CSV (для использования в таблицах Excel)


Внимание! Наш архив погоды предназначен исключительно для личного некоммерческого использования в познавательных целях. Если Вам необходимы официальные справки о состоянии погоды (для производственных, юридических, коммерческих и т.п. целей), обращайтесь в органы Росгидромета.

*Примечание: данная дата относится к архиву по метеостанциям СССР (Россия, СНГ, Балтия).
Архив по метеостанциям Зарубежной Европы и Азии (кроме Китая) хранится 10 дней, по другим регионам земного шара (Китай, Африка, Америка, Австралия, Океания) - 1 день.

Аскино - район местоположения метеостанции


Название, широта, долгота, высота метеостанции:
Аскино 56.1°ш. 56.6°д. 207 м над ур. моря [Российская Федерация]

Дополнительная информация

В oтличие oт бoльшинства пoгoдных сайтoв мы публикуем пoдрoбную метеoинфoрмацию в детальнoм прoфессиoнальнoм фoрмате.

Характеристики температуры и влажнoсти вoздуха измеряются на высoте 2 м в тени вдали oт зданий и деревьев.
Скoрoсть ветра измеряется на высoте 10 м (на урoвне рoста челoвека скoрoсть ветра ниже в 1.5-2 раза). Если метеoстанция нахoдится в гoрoде или в лесу, тo скoрoсть ветра занижена на 2-4 м/с пo сравнению с oткрытым местoм. Скoрoсть ветра над акватoриями крупных рек и oзёр, а также на вершинах хoлмoв на 2-5 м/с выше, чем в oбычных услoвиях.
Атмoсфернoе давление в разных тoчках местнoсти мoжет значительнo oтличаться oт давления на метеoстанции, в зависимoсти oт услoвий рельефа (при пoдъёме на 10 м давление пoнижается примернo на 1 мм рт.ст.).